| time (UTC) | temp C | wind direction | speed KPH | gust KPH | rain 1hr cm | rain 24hr cm | rain mn cm | humidity % | barometer mb |
| 20260906080709 | 30 | 234 | 3.2 | 0.0 | 0.00 | 0.00 | 0.00 | 100 | 1021.0 |
| 20260906080203 | 30 | 171 | 0.0 | 0.0 | 0.00 | 0.00 | 0.00 | 100 | 1021.0 |
| 20260906075719 | 30 | 113 | 0.0 | 0.0 | 0.00 | 0.00 | 0.00 | 100 | 1020.8 |
| 20260906075234 | 29 | 37 | 0.0 | 0.0 | 0.00 | 0.00 | 0.00 | 100 | 1020.8 |
| 20260906074726 | 29 | 44 | 0.0 | 0.0 | 0.00 | 0.00 | 0.00 | 100 | 1020.9 |
| 20260906074205 | 28 | 53 | 0.0 | 0.0 | 0.00 | 0.00 | 0.00 | 100 | 1020.8 |
| 20260906073715 | 28 | 47 | 0.0 | 0.0 | 0.00 | 0.00 | 0.00 | 100 | 1020.7 |
| 20260906073210 | 28 | 51 | 0.0 | 0.0 | 0.00 | 0.00 | 0.00 | 100 | 1020.7 |
| 20260906072722 | 28 | 51 | 1.6 | 0.0 | 0.00 | 0.00 | 0.00 | 100 | 1020.8 |
| 20260906072214 | 28 | 53 | 0.0 | 0.0 | 0.00 | 0.00 | 0.00 | 100 | 1020.6 |
| 20260906071703 | 28 | 56 | 0.0 | 0.0 | 0.00 | 0.00 | 0.00 | 100 | 1020.6 |
| 20260906071218 | 28 | 58 | 0.0 | 0.0 | 0.00 | 0.00 | 0.00 | 100 | 1020.6 |
| 20260906070713 | 28 | 59 | 0.0 | 0.0 | 0.00 | 0.00 | 0.00 | 100 | 1020.6 |
| 20260906070244 | 28 | 54 | 0.0 | 0.0 | 0.00 | 0.00 | 0.00 | 100 | 1020.5 |
| 20260906065719 | 27 | 63 | 0.0 | 0.0 | 0.00 | 0.00 | 0.00 | 100 | 1020.6 |
| 20260906065255 | 27 | 62 | 0.0 | 0.0 | 0.00 | 0.00 | 0.00 | 100 | 1020.5 |
| 20260906065212 | 27 | 62 | 0.0 | 0.0 | 0.00 | 0.00 | 0.00 | 100 | 1020.5 |
| 20260906064746 | 27 | 64 | 0.0 | 0.0 | 0.00 | 0.00 | 0.00 | 100 | 1020.5 |
| 20260906064256 | 26 | 68 | 0.0 | 0.0 | 0.00 | 0.00 | 0.00 | 100 | 1020.5 |
| 20260906063742 | 26 | 64 | 0.0 | 0.0 | 0.00 | 0.00 | 0.00 | 100 | 1020.5 |
| 20260906063215 | 26 | 67 | 1.6 | 0.0 | 0.00 | 0.00 | 0.00 | 7 | 1020.4 |
| 20260906062727 | 26 | 59 | 0.0 | 0.0 | 0.00 | 0.00 | 0.00 | 27 | 1020.4 |
| 20260906062214 | 26 | 62 | 0.0 | 0.0 | 0.00 | 0.00 | 0.00 | 51 | 1020.5 |
| 20260906061704 | 25 | 51 | 0.0 | 0.0 | 0.00 | 0.00 | 0.00 | 68 | 1020.4 |
| 20260906061220 | 25 | 46 | 0.0 | 0.0 | 0.00 | 0.00 | 0.00 | 100 | 1020.3 |
| 20260906060729 | 25 | 44 | 0.0 | 0.0 | 0.00 | 0.00 | 0.00 | 100 | 1020.3 |
| 20260906060219 | 25 | 44 | 1.6 | 0.0 | 0.00 | 0.00 | 0.00 | 100 | 1020.2 |
| 20260906055733 | 25 | 56 | 3.2 | 0.0 | 0.00 | 0.00 | 0.00 | 100 | 1020.2 |
| 20260906055211 | 24 | 146 | 0.0 | 0.0 | 0.00 | 0.00 | 0.00 | 100 | 1020.1 |
| 20260906054722 | 23 | 156 | 0.0 | 0.0 | 0.00 | 0.00 | 0.00 | 21 | 1020.0 |
| 20260906054210 | 23 | 165 | 0.0 | 0.0 | 0.00 | 0.00 | 0.00 | 57 | 1019.8 |
| 20260906053706 | 23 | 158 | 0.0 | 0.0 | 0.00 | 0.00 | 0.00 | 100 | 1019.8 |
| 20260906053216 | 23 | 157 | 0.0 | 0.0 | 0.00 | 0.00 | 0.00 | 100 | 1019.8 |
| 20260906052728 | 23 | 149 | 0.0 | 0.0 | 0.00 | 0.00 | 0.00 | 100 | 1019.8 |
| 20260906052203 | 22 | 155 | 1.6 | 0.0 | 0.00 | 0.00 | 0.00 | 100 | 1019.8 |
| 20260906051721 | 22 | 163 | 3.2 | 0.0 | 0.00 | 0.00 | 0.00 | 100 | 1019.7 |
| 20260906051219 | 22 | 168 | 4.8 | 0.0 | 0.00 | 0.00 | 0.00 | 100 | 1019.7 |
| 20260906050712 | 23 | 162 | 0.0 | 0.0 | 0.00 | 0.00 | 0.00 | 100 | 1019.8 |
| 20260906050211 | 23 | 167 | 3.2 | 0.0 | 0.00 | 0.00 | 0.00 | 100 | 1019.8 |
| 20260906045712 | 23 | 169 | 1.6 | 0.0 | 0.00 | 0.00 | 0.00 | 100 | 1019.7 |
| 20260906045229 | 23 | 174 | 3.2 | 0.0 | 0.00 | 0.00 | 0.00 | 100 | 1019.7 |
| 20260906044723 | 23 | 185 | 3.2 | 0.0 | 0.00 | 0.00 | 0.00 | 100 | 1019.7 |
| 20260906044211 | 23 | 178 | 0.0 | 0.0 | 0.00 | 0.00 | 0.00 | 100 | 1019.7 |
| 20260906043723 | 23 | 175 | 0.0 | 0.0 | 0.00 | 0.00 | 0.00 | 100 | 1019.7 |
| 20260906043217 | 23 | 176 | 0.0 | 0.0 | 0.00 | 0.00 | 0.00 | 100 | 1019.6 |
| 20260906042716 | 23 | 171 | 0.0 | 0.0 | 0.00 | 0.00 | 0.00 | 100 | 1019.4 |
| 20260906042202 | 23 | 170 | 0.0 | 0.0 | 0.00 | 0.00 | 0.00 | 100 | 1019.6 |
| 20260906041733 | 23 | 182 | 0.0 | 0.0 | 0.00 | 0.00 | 0.00 | 100 | 1019.6 |
| 20260906041217 | 23 | 174 | 0.0 | 0.0 | 0.00 | 0.00 | 0.00 | 100 | 1019.6 |
| 20260906040706 | 23 | 166 | 0.0 | 0.0 | 0.00 | 0.00 | 0.00 | 100 | 1019.6 |
| 20260906040216 | 23 | 185 | 0.0 | 0.0 | 0.00 | 0.00 | 0.00 | 100 | 1019.6 |
| 20260906035732 | 23 | 174 | 0.0 | 0.0 | 0.00 | 0.00 | 0.00 | 100 | 1019.5 |
| 20260906035210 | 23 | 176 | 3.2 | 0.0 | 0.00 | 0.00 | 0.00 | 100 | 1019.5 |
| 20260906034722 | 22 | 167 | 1.6 | 0.0 | 0.00 | 0.00 | 0.00 | 100 | 1019.5 |
| 20260906034213 | 23 | 165 | 0.0 | 0.0 | 0.00 | 0.00 | 0.00 | 100 | 1019.3 |
| 20260906033711 | 22 | 159 | 0.0 | 0.0 | 0.00 | 0.00 | 0.00 | 100 | 1019.3 |
| 20260906033228 | 23 | 160 | 0.0 | 0.0 | 0.00 | 0.00 | 0.00 | 100 | 1019.4 |
| 20260906032703 | 23 | 162 | 0.0 | 0.0 | 0.00 | 0.00 | 0.00 | 100 | 1019.4 |
| 20260906032227 | 23 | 162 | 0.0 | 0.0 | 0.00 | 0.00 | 0.00 | 100 | 1019.3 |
| 20260906031703 | 23 | 175 | 0.0 | 0.0 | 0.00 | 0.00 | 0.00 | 100 | 1019.3 |
| 20260906031202 | 23 | 163 | 0.0 | 0.0 | 0.00 | 0.00 | 0.00 | 100 | 1019.4 |
| 20260906030718 | 23 | 163 | 0.0 | 0.0 | 0.00 | 0.00 | 0.00 | 100 | 1019.3 |
| 20260906030216 | 23 | 167 | 4.8 | 0.0 | 0.00 | 0.00 | 0.00 | 100 | 1019.5 |
| 20260906025714 | 23 | 168 | 0.0 | 0.0 | 0.00 | 0.00 | 0.00 | 100 | 1019.5 |
| 20260906025212 | 23 | 167 | 0.0 | 0.0 | 0.00 | 0.00 | 0.00 | 100 | 1019.5 |
| 20260906024723 | 23 | 166 | 1.6 | 0.0 | 0.00 | 0.00 | 0.00 | 100 | 1019.5 |
| 20260906024213 | 23 | 150 | 0.0 | 0.0 | 0.00 | 0.00 | 0.00 | 100 | 1019.5 |
| 20260906023711 | 23 | 147 | 0.0 | 0.0 | 0.00 | 0.00 | 0.00 | 100 | 1019.6 |
| 20260906023209 | 23 | 147 | 0.0 | 0.0 | 0.00 | 0.00 | 0.00 | 100 | 1019.5 |
| 20260906022709 | 23 | 148 | 3.2 | 0.0 | 0.00 | 0.00 | 0.00 | 100 | 1019.6 |
| 20260906022201 | 23 | 149 | 0.0 | 0.0 | 0.00 | 0.00 | 0.00 | 100 | 1019.7 |
| 20260906021703 | 23 | 150 | 3.2 | 0.0 | 0.00 | 0.00 | 0.00 | 100 | 1019.8 |
| 20260906021202 | 23 | 159 | 3.2 | 0.0 | 0.00 | 0.00 | 0.00 | 100 | 1019.6 |
| 20260906020803 | 23 | 158 | 3.2 | 0.0 | 0.00 | 0.00 | 0.00 | 87 | 1019.6 |
| 20260906020234 | 23 | 147 | 4.8 | 0.0 | 0.00 | 0.00 | 0.00 | 81 | 1019.5 |
| 20260906015710 | 24 | 165 | 1.6 | 0.0 | 0.00 | 0.00 | 0.00 | 71 | 1019.5 |
| 20260906015207 | 24 | 166 | 3.2 | 0.0 | 0.00 | 0.00 | 0.00 | 74 | 1019.5 |
| 20260906014725 | 24 | 163 | 4.8 | 0.0 | 0.00 | 0.00 | 0.00 | 74 | 1019.6 |
| 20260906014213 | 24 | 170 | 3.2 | 0.0 | 0.00 | 0.00 | 0.00 | 70 | 1019.5 |
| 20260906013709 | 24 | 159 | 0.0 | 0.0 | 0.00 | 0.00 | 0.00 | 61 | 1019.6 |
| 20260906013206 | 24 | 153 | 0.0 | 0.0 | 0.00 | 0.00 | 0.00 | 46 | 1019.6 |
| 20260906012725 | 24 | 151 | 1.6 | 0.0 | 0.00 | 0.00 | 0.00 | 20 | 1019.6 |
| 20260906012216 | 24 | 171 | 3.2 | 0.0 | 0.00 | 0.00 | 0.00 | 100 | 1019.7 |
| 20260906011729 | 24 | 165 | 0.0 | 0.0 | 0.00 | 0.00 | 0.00 | 100 | 1019.6 |
| 20260906011212 | 24 | 150 | 0.0 | 0.0 | 0.00 | 0.00 | 0.00 | 100 | 1019.5 |
| 20260906010742 | 24 | 146 | 0.0 | 0.0 | 0.00 | 0.00 | 0.00 | 100 | 1019.5 |
| 20260906010234 | 25 | 154 | 0.0 | 0.0 | 0.00 | 0.00 | 0.00 | 100 | 1019.6 |
| 20260906005738 | 24 | 143 | 0.0 | 0.0 | 0.00 | 0.00 | 0.00 | 100 | 1019.6 |
| 20260906005208 | 24 | 153 | 3.2 | 0.0 | 0.00 | 0.00 | 0.00 | 100 | 1019.7 |
| 20260906004723 | 24 | 155 | 1.6 | 0.0 | 0.00 | 0.00 | 0.00 | 97 | 1019.6 |
| 20260906004214 | 24 | 142 | 1.6 | 0.0 | 0.00 | 0.00 | 0.00 | 86 | 1019.6 |
| 20260906003710 | 25 | 155 | 3.2 | 0.0 | 0.00 | 0.00 | 0.00 | 75 | 1019.5 |
| 20260906003206 | 25 | 154 | 3.2 | 0.0 | 0.00 | 0.00 | 0.00 | 72 | 1019.7 |
| 20260906002703 | 25 | 153 | 3.2 | 0.0 | 0.00 | 0.00 | 0.00 | 65 | 1019.5 |
| 20260906002221 | 25 | 147 | 3.2 | 0.0 | 0.00 | 0.00 | 0.00 | 55 | 1019.6 |
| 20260906001715 | 25 | 123 | 4.8 | 0.0 | 0.00 | 0.00 | 0.00 | 44 | 1019.6 |
| 20260906001213 | 25 | 110 | 3.2 | 0.0 | 0.00 | 0.00 | 0.00 | 32 | 1019.6 |
| 20260906000729 | 25 | 121 | 3.2 | 0.0 | 0.00 | 0.00 | 0.00 | 24 | 1019.6 |
| 20260906000226 | 25 | 123 | 3.2 | 0.0 | 0.00 | 0.00 | 0.00 | 22 | 1019.6 |
| 20260905235744 | 25 | 109 | 0.0 | 0.0 | 0.00 | 0.00 | 0.00 | 28 | 1019.6 |
| 20260905235215 | 25 | 109 | 3.2 | 0.0 | 0.00 | 0.00 | 0.00 | 12 | 1019.5 |
| 20260905234807 | 25 | 120 | 3.2 | 0.0 | 0.00 | 0.00 | 0.00 | 1 | 1019.5 |
| 20260905234209 | 25 | 149 | 4.8 | 0.0 | 0.00 | 0.00 | 0.00 | 100 | 1019.5 |
| 20260905233718 | 25 | 261 | 0.0 | 0.0 | 0.00 | 0.00 | 0.00 | 100 | 1019.7 |
| 20260905233211 | 25 | 255 | 0.0 | 0.0 | 0.00 | 0.00 | 0.00 | 100 | 1019.7 |
| 20260905232707 | 26 | 258 | 1.6 | 0.0 | 0.00 | 0.00 | 0.00 | 100 | 1019.6 |
| 20260905232203 | 26 | 263 | 4.8 | 0.0 | 0.00 | 0.00 | 0.00 | 100 | 1019.7 |
| 20260905231710 | 26 | 250 | 3.2 | 0.0 | 0.00 | 0.00 | 0.00 | 100 | 1019.6 |
| 20260905231202 | 27 | 258 | 3.2 | 0.0 | 0.00 | 0.00 | 0.00 | 100 | 1019.6 |
| 20260905230716 | 27 | 253 | 0.0 | 0.0 | 0.00 | 0.00 | 0.00 | 100 | 1019.7 |
| 20260905230208 | 27 | 253 | 3.2 | 0.0 | 0.00 | 0.00 | 0.00 | 100 | 1019.6 |
| 20260905225737 | 27 | 247 | 6.4 | 0.0 | 0.00 | 0.00 | 0.00 | 100 | 1019.5 |
| 20260905225231 | 27 | 253 | 3.2 | 0.0 | 0.00 | 0.00 | 0.00 | 100 | 1019.6 |
| 20260905224724 | 27 | 251 | 0.0 | 0.0 | 0.00 | 0.00 | 0.00 | 100 | 1019.7 |
| 20260905224215 | 27 | 250 | 0.0 | 0.0 | 0.00 | 0.00 | 0.00 | 100 | 1019.7 |
| 20260905223709 | 27 | 256 | 0.0 | 0.0 | 0.00 | 0.00 | 0.00 | 100 | 1019.6 |
| 20260905223227 | 27 | 244 | 3.2 | 0.0 | 0.00 | 0.00 | 0.00 | 100 | 1019.7 |
| 20260905222804 | 27 | 239 | 3.2 | 0.0 | 0.00 | 0.00 | 0.00 | 100 | 1019.6 |
| 20260905222721 | 27 | 239 | 3.2 | 0.0 | 0.00 | 0.00 | 0.00 | 100 | 1019.6 |
| 20260905222215 | 27 | 240 | 8.0 | 0.0 | 0.00 | 0.00 | 0.00 | 100 | 1019.7 |
| 20260905221712 | 27 | 239 | 8.0 | 0.0 | 0.00 | 0.00 | 0.00 | 100 | 1019.6 |
| 20260905221250 | 27 | 289 | 4.8 | 0.0 | 0.00 | 0.00 | 0.00 | 100 | 1019.5 |
| 20260905221208 | 27 | 289 | 4.8 | 0.0 | 0.00 | 0.00 | 0.00 | 100 | 1019.5 |
| 20260905220723 | 27 | 289 | 6.4 | 0.0 | 0.00 | 0.00 | 0.00 | 100 | 1019.6 |
| 20260905220211 | 27 | 290 | 8.0 | 0.0 | 0.00 | 0.00 | 0.00 | 100 | 1019.5 |
| 20260905215707 | 27 | 291 | 6.4 | 0.0 | 0.00 | 0.00 | 0.00 | 100 | 1019.7 |
| 20260905215208 | 27 | 288 | 3.2 | 0.0 | 0.00 | 0.00 | 0.00 | 100 | 1019.6 |
| 20260905214724 | 27 | 294 | 9.7 | 0.0 | 0.00 | 0.00 | 0.00 | 100 | 1019.6 |
| 20260905214220 | 27 | 291 | 9.7 | 0.0 | 0.00 | 0.00 | 0.00 | 100 | 1019.6 |
| 20260905213714 | 27 | 289 | 9.7 | 0.0 | 0.00 | 0.00 | 0.00 | 100 | 1019.5 |
| 20260905213207 | 27 | 298 | 6.4 | 0.0 | 0.00 | 0.00 | 0.00 | 100 | 1019.5 |
| 20260905212222 | 27 | 299 | 6.4 | 0.0 | 0.00 | 0.00 | 0.00 | 100 | 1019.5 |
| 20260905211724 | 27 | 294 | 9.7 | 0.0 | 0.00 | 0.00 | 0.00 | 100 | 1019.6 |
| 20260905211218 | 28 | 296 | 6.4 | 0.0 | 0.00 | 0.00 | 0.00 | 100 | 1019.6 |
| 20260905210711 | 28 | 298 | 11.3 | 0.0 | 0.00 | 0.00 | 0.00 | 100 | 1019.6 |
| 20260905210251 | 28 | 298 | 12.9 | 0.0 | 0.00 | 0.00 | 0.00 | 100 | 1019.6 |
| 20260905205721 | 28 | 306 | 3.2 | 0.0 | 0.00 | 0.00 | 0.00 | 100 | 1019.5 |
| 20260905205214 | 28 | 307 | 3.2 | 0.0 | 0.00 | 0.00 | 0.00 | 100 | 1019.5 |
| 20260905204723 | 28 | 311 | 6.4 | 0.0 | 0.00 | 0.00 | 0.00 | 100 | 1019.6 |
| 20260905204255 | 28 | 308 | 4.8 | 0.0 | 0.00 | 0.00 | 0.00 | 100 | 1019.6 |
| 20260905204209 | 28 | 308 | 4.8 | 0.0 | 0.00 | 0.00 | 0.00 | 100 | 1019.6 |
| 20260905203707 | 28 | 313 | 0.0 | 0.0 | 0.00 | 0.00 | 0.00 | 100 | 1019.6 |
| 20260905203221 | 28 | 309 | 3.2 | 0.0 | 0.00 | 0.00 | 0.00 | 100 | 1019.6 |
| 20260905202211 | 28 | 310 | 0.0 | 0.0 | 0.00 | 0.00 | 0.00 | 100 | 1019.6 |
| 20260905201220 | 28 | 317 | 0.0 | 0.0 | 0.00 | 0.00 | 0.00 | 100 | 1019.6 |
| 20260905200720 | 28 | 310 | 0.0 | 0.0 | 0.00 | 0.00 | 0.00 | 100 | 1019.6 |
| 20260905200233 | 28 | 310 | 0.0 | 0.0 | 0.00 | 0.00 | 0.00 | 100 | 1019.6 |
| 20260905195706 | 28 | 311 | 6.4 | 0.0 | 0.00 | 0.00 | 0.00 | 100 | 1019.5 |
| 20260905195216 | 28 | 310 | 3.2 | 0.0 | 0.00 | 0.00 | 0.00 | 100 | 1019.7 |
| 20260905194744 | 28 | 312 | 0.0 | 0.0 | 0.00 | 0.00 | 0.00 | 100 | 1019.5 |
| 20260905194218 | 28 | 309 | 0.0 | 0.0 | 0.00 | 0.00 | 0.00 | 100 | 1019.4 |
| 20260905193736 | 28 | 311 | 6.4 | 0.0 | 0.00 | 0.00 | 0.00 | 100 | 1019.5 |
| 20260905193221 | 28 | 312 | 0.0 | 0.0 | 0.00 | 0.00 | 0.00 | 100 | 1019.6 |
| 20260905192240 | 28 | 312 | 0.0 | 0.0 | 0.00 | 0.00 | 0.00 | 100 | 1019.5 |
| 20260905191242 | 28 | 309 | 3.2 | 0.0 | 0.00 | 0.00 | 0.00 | 100 | 1019.5 |
| 20260905190210 | 28 | 310 | 1.6 | 0.0 | 0.00 | 0.00 | 0.00 | 100 | 1019.4 |
| 20260905185243 | 28 | 315 | 0.0 | 0.0 | 0.00 | 0.00 | 0.00 | 100 | 1019.2 |
| 20260905184728 | 28 | 310 | 3.2 | 0.0 | 0.00 | 0.00 | 0.00 | 100 | 1019.3 |
| 20260905184201 | 28 | 310 | 3.2 | 0.0 | 0.00 | 0.00 | 0.00 | 100 | 1019.2 |
| 20260905183221 | 28 | 313 | 0.0 | 0.0 | 0.00 | 0.00 | 0.00 | 100 | 1019.1 |
| 20260905182708 | 28 | 314 | 1.6 | 0.0 | 0.00 | 0.00 | 0.00 | 100 | 1019.1 |
| 20260905182218 | 28 | 313 | 0.0 | 0.0 | 0.00 | 0.00 | 0.00 | 100 | 1019.2 |
| 20260905181727 | 28 | 311 | 1.6 | 0.0 | 0.00 | 0.00 | 0.00 | 100 | 1019.1 |
| 20260905181211 | 28 | 314 | 0.0 | 0.0 | 0.00 | 0.00 | 0.00 | 100 | 1019.1 |
| 20260905180708 | 28 | 314 | 1.6 | 0.0 | 0.00 | 0.00 | 0.00 | 100 | 1019.1 |
| 20260905180213 | 28 | 311 | 0.0 | 0.0 | 0.00 | 0.00 | 0.00 | 100 | 1018.9 |
| 20260905175759 | 28 | 310 | 0.0 | 0.0 | 0.00 | 0.00 | 0.00 | 100 | 1019.1 |
| 20260905175722 | 28 | 310 | 0.0 | 0.0 | 0.00 | 0.00 | 0.00 | 100 | 1019.1 |
| 20260905174740 | 28 | 312 | 0.0 | 0.0 | 0.00 | 0.00 | 0.00 | 100 | 1019.0 |
| 20260905174239 | 28 | 312 | 0.0 | 0.0 | 0.00 | 0.00 | 0.00 | 100 | 1018.9 |
| 20260905173213 | 28 | 304 | 3.2 | 0.0 | 0.00 | 0.00 | 0.00 | 100 | 1018.7 |
| 20260905172213 | 28 | 314 | 9.7 | 0.0 | 0.00 | 0.00 | 0.00 | 100 | 1018.7 |
| 20260905171720 | 29 | 318 | 3.2 | 0.0 | 0.00 | 0.00 | 0.00 | 100 | 1018.8 |
| 20260905171238 | 29 | 317 | 0.0 | 0.0 | 0.00 | 0.00 | 0.00 | 100 | 1018.9 |
| 20260905170713 | 29 | 315 | 0.0 | 0.0 | 0.00 | 0.00 | 0.00 | 100 | 1018.8 |
| 20260905170233 | 29 | 317 | 0.0 | 0.0 | 0.00 | 0.00 | 0.00 | 100 | 1018.8 |
| 20260905165725 | 29 | 317 | 0.0 | 0.0 | 0.00 | 0.00 | 0.00 | 100 | 1018.7 |
| 20260905164729 | 29 | 323 | 0.0 | 0.0 | 0.00 | 0.00 | 0.00 | 100 | 1018.7 |
| 20260905163742 | 29 | 318 | 3.2 | 0.0 | 0.00 | 0.00 | 0.00 | 100 | 1018.8 |
| 20260905162706 | 29 | 314 | 3.2 | 0.0 | 0.00 | 0.00 | 0.00 | 100 | 1018.7 |